Вернуться в каталог

HAWK-14B

АктивенНаукаSSO
NORAD 68436·PAYLOAD·🇺🇸 United States

Запущен Mar 30, 2026 с Vandenberg Space Force Base

Loading…

Ближайшие Пролёты (ближайшие 24 часа)

TLE

СвежийSource: Space-Track

Эпоха: Sep 14, 2026, 07:19 UTC

1 68436U 26067W   26257.30490044  .00003547  00000-0  17352-3 0  9994
2 68436  97.4647 214.5531 0004438  92.4209 267.7534 15.18841539 25468

Отслеживайте HAWK-14B в реальном времени с AllMySat

Download on the App Store